[[{"header":{"parameterUnit":"m.s-1","parameterCategory":1,"la1":30.2991,"la2":30.254,"lo1":-89.0895,"lo2":-89.0444,"dy":0.0017,"dx":0.0017,"nx":28,"ny":28,"refTime":"2024-07-18T09:00:00:Z","depth":0,"parameterNumber":2,"parameterNumberName":"U-component_of_WINDS"},"data":[0,0,0,0,0,0,0,0,0,0,0,0,0,0,0,0,0,0,0,0,0,0,0,0,0,0,0,0,0,0,0,0,0,0,0,0,0,0,0,0,0,0,0,0,0,0,0,0,0,0,0,0,0,0,0,0,0,0,-3.2461,-3.2461,0,-3.2467,-3.2467,-3.2467,-3.2403,-3.2401,-3.2399,-3.2397,-3.2403,-3.2405,-3.2407,0,0,0,0,0,0,0,0,0,0,0,0,0,-3.2391,-3.2392,-3.2461,-3.2461,-3.2461,-3.2467,-3.2467,-3.2467,-3.2403,-3.2401,-3.2399,-3.2397,-3.2402,-3.2405,-3.2407,0,0,0,0,0,0,0,0,0,0,0,0,0,-3.2412,-3.2393,-3.2461,-3.243,-3.2427,-3.2467,-3.2467,-3.2467,-3.2403,-3.2401,-3.2398,-3.2396,-3.2402,-3.2404,-3.2407,-3.2477,0,0,-3.2415,-3.2417,0,0,0,0,0,0,0,0,-3.241,-3.2414,-3.2434,-3.2432,-3.2429,-3.2431,-3.2444,-3.2471,-3.2404,-3.2412,-3.2397,-3.2394,-3.2415,-3.2416,-3.2423,-3.2477,-3.2478,-3.2416,-3.2417,-3.2418,-3.2419,0,0,0,0,0,0,0,-3.2409,-3.2414,-3.2463,-3.2435,-3.2431,-3.2415,-3.2415,-3.2449,-3.2428,-3.2412,-3.2407,-3.2408,-3.2413,-3.2421,-3.2423,-3.2478,-3.2416,-3.2418,-3.242,-3.2421,-3.2586,-3.2589,0,0,0,0,0,0,-3.2412,-3.2413,-3.2463,-3.2464,-3.2413,-3.2418,-3.2418,-3.2433,-3.2428,-3.2424,-3.2411,-3.2405,-3.2417,-3.242,-3.2423,-3.2502,-3.2418,-3.2421,-3.2422,-3.2584,-3.2587,-3.259,0,0,0,0,0,0,-3.2411,-3.2417,-3.2463,-3.2437,-3.2441,-3.2422,-3.244,-3.2435,-3.2443,-3.2427,-3.2423,-3.2423,-3.2415,-3.2419,-3.2463,-3.2501,-3.2422,-3.2425,-3.258,-3.2585,-3.2588,-3.2662,0,0,0,0,0,0,-3.2409,-3.2417,-3.2445,-3.2438,-3.2443,-3.2505,-3.2442,-3.2437,-3.2448,-3.2441,-3.2438,-3.2434,-3.2414,-3.246,-3.2466,-3.2503,-3.2427,-3.2577,-3.2582,-3.2587,-3.2656,-3.2669,-3.2679,0,0,0,0,0,-3.2407,-3.2466,-3.2446,-3.2453,-3.2477,-3.2507,-3.251,-3.2485,-3.2451,-3.2477,-3.2467,-3.2435,-3.2496,-3.2465,-3.2471,-3.251,-3.2574,-3.2581,-3.2587,-3.2651,-3.2666,-3.2679,0,0,0,0,0,0,-3.2478,-3.2464,-3.2443,-3.2501,-3.2506,-3.2496,-3.2529,-3.2502,-3.2516,-3.2509,-3.2477,-3.2476,-3.2525,-3.2523,-3.2488,-3.2576,-3.2529,-3.2537,-3.2576,-3.259,-3.2601,-3.26,-3.2429,0,0,0,0,0,-3.25,-3.2526,-3.2513,-3.2566,-3.2569,-3.2549,-3.2561,-3.2541,-3.2544,-3.2546,-3.2539,-3.2543,-3.2562,-3.2576,-3.2594,-3.2656,-3.2653,-3.2686,-3.2697,-3.2706,-3.2713,-3.2742,-3.2756,-3.261,-3.261,-3.261,0,0,-3.2547,-3.2543,-3.2561,-3.258,-3.2581,-3.2607,-3.2551,-3.2582,-3.2601,-3.255,-3.2591,-3.2586,-3.2588,-3.2641,-3.2664,-3.264,-3.2753,-3.2714,-3.2722,-3.2723,-3.275,-3.2764,-3.2776,-3.2615,-3.2614,-3.2613,0,0,-3.2645,-3.2645,-3.2688,-3.269,-3.2691,-3.2677,-3.2687,-3.2681,-3.2676,-3.2716,-3.2678,-3.27,-3.2736,-3.2738,-3.2744,-3.284,-3.2809,-3.2846,-3.2905,-3.2934,-3.2945,-3.2955,-3.2987,-3.2999,-3.2853,-3.2854,-3.2854,0,-3.2702,-3.2741,-3.2713,-3.2746,-3.2754,-3.2709,-3.2751,-3.2754,-3.2762,-3.2768,-3.2741,-3.2783,-3.2782,-3.2833,-3.2856,-3.2863,-3.2872,-3.2846,-3.2946,-3.2956,-3.2964,-3.2994,-3.3007,-3.2858,-3.2857,-3.2857,-3.2857,0,-3.281,-3.2837,-3.2871,-3.2879,-3.2891,-3.2928,-3.2905,-3.2921,-3.2899,-3.2887,-3.2928,-3.2924,-3.2939,-3.295,-3.293,-3.2998,-3.2982,-3.2952,-3.2903,-3.2983,-3.301,-3.3022,-3.2864,-3.2863,-3.2861,-3.286,0,0,-3.2954,-3.2943,-3.2956,-3.2957,-3.2955,-3.2975,-3.301,-3.3024,-3.3036,-3.3043,-3.3069,-3.31,-3.307,-3.3077,-3.3056,-3.3082,-3.3155,-3.3048,-3.3047,-3.3066,-3.3226,-3.3248,-3.3262,-3.3136,-3.3138,-3.3139,-3.3225,0,-3.3047,-3.3104,-3.3079,-3.3139,-3.3162,-3.3119,-3.3148,-3.3149,-3.3139,-3.3156,-3.3144,-3.3165,-3.3126,-3.3129,-3.3153,-3.3141,-3.3187,-3.3135,-3.3158,-3.3159,-3.3157,-3.3276,-3.33,-3.3381,-3.3236,-3.3238,-3.3239,0,-3.3163,-3.3173,-3.3235,-3.3225,-3.3234,-3.3261,-3.327,-3.3288,-3.3288,-3.3278,-3.3284,-3.3257,-3.3289,-3.3242,-3.3284,-3.3249,-3.3257,-3.3253,-3.3255,-3.3255,-3.3203,-3.3277,-3.3406,-3.3418,-3.3256,-3.3255,-3.3254,0,-3.3258,-3.3287,-3.3326,-3.3329,-3.332,-3.334,-3.3337,-3.3334,-3.3343,-3.3351,-3.3356,-3.3368,-3.3375,-3.3384,-3.3361,-3.3329,-3.3404,-3.3357,-3.3396,-3.3396,-3.3412,-3.3411,-3.3542,-3.3421,-3.3421,-3.3421,-3.3421,0,-3.3363,-3.3402,-3.3368,-3.3393,-3.3434,-3.3404,-3.3446,-3.3438,-3.3435,-3.3456,-3.3421,-3.3441,-3.341,-3.3427,-3.3409,-3.3444,-3.3448,-3.344,-3.3434,-3.3442,-3.3443,-3.3445,-3.3438,-3.3424,-3.3423,-3.3423,-3.3422,0,-3.3476,-3.3455,-3.3495,-3.3482,-3.348,-3.3511,-3.3499,-3.352,-3.3507,-3.3534,-3.3538,-3.3517,-3.3535,-3.3513,-3.3529,-3.3517,-3.3564,-3.3552,-3.3564,-3.356,-3.3599,-3.3595,-3.3735,-3.375,-3.3622,-3.3623,-3.3624,0,-3.3544,-3.3572,-3.3561,-3.3572,-3.3571,-3.359,-3.3599,-3.357,-3.358,-3.358,-3.3601,-3.3616,-3.3626,-3.3657,-3.3642,-3.3654,-3.3639,-3.3688,-3.3641,-3.3647,-3.3637,-3.3634,-3.3636,-3.3697,-3.3698,-3.37,-3.3701,0,-3.3665,-3.3652,-3.3666,-3.3675,-3.3685,-3.3692,-3.3695,-3.3706,-3.3676,-3.3689,-3.3706,-3.3714,-3.373,-3.3744,-3.3752,-3.3748,-3.3719,-3.3716,-3.3725,-3.3732,-3.3736,-3.3731,-3.3588,-3.3712,-3.3711,-3.371,-3.3709,-3.3709,-3.3755,-3.3776,-3.3772,-3.3787,-3.3786,-3.379,-3.3808,-3.3796,-3.381,-3.3819,-3.3802,-3.3823,-3.382,-3.3826,-3.3826,-3.3841,-3.382,-3.3834,-3.3837,-3.3841,-3.3845,-3.3736,-3.3843,-3.3843,-3.3842,-3.3842,-3.3842,0,-3.3871,-3.3865,-3.388,-3.3885,-3.3896,-3.3868,-3.3869,-3.3881,-3.3899,-3.3899,-3.3909,-3.3927,-3.3941,-3.3927,-3.3937,-3.3952,-3.3939,-3.3955,-3.3953,-3.3952,-3.3865,-3.3855,-3.3966,-3.3966,-3.3966,-3.3966,-3.3966,-3.3966,-3.3933,-3.3967,-3.3954,-3.3987,-3.3981,-3.4001,-3.4004,-3.4006,-3.4005,-3.4027,-3.4037,-3.4028,-3.4021,-3.403,-3.4041,-3.4036,-3.404,-3.4061,-3.4052,-3.3971,-3.3958,-3.3947,-3.3937,-3.4063,-3.4063,-3.4137,-3.4138,-3.4138]},{"header":{"parameterUnit":"m.s-1","parameterCategory":1,"la1":30.2991,"la2":30.254,"lo1":-89.0895,"lo2":-89.0444,"dy":0.0017,"dx":0.0017,"nx":28,"ny":28,"refTime":"2024-07-18T09:00:00:Z","depth":0,"parameterNumber":3,"parameterNumberName":"V-component_of_WINDS"},"data":[0,0,0,0,0,0,0,0,0,0,0,0,0,0,0,0,0,0,0,0,0,0,0,0,0,0,0,0,0,0,0,0,0,0,0,0,0,0,0,0,0,0,0,0,0,0,0,0,0,0,0,0,0,0,0,0,0,0,-2.4474,-2.4476,0,-2.4649,-2.4651,-2.4653,-2.4694,-2.4692,-2.4691,-2.469,-2.4865,-2.4871,-2.4877,0,0,0,0,0,0,0,0,0,0,0,0,0,-2.4171,-2.4176,-2.4474,-2.4476,-2.4478,-2.4648,-2.4651,-2.4653,-2.4694,-2.4692,-2.4691,-2.469,-2.4864,-2.487,-2.4877,0,0,0,0,0,0,0,0,0,0,0,0,0,-2.4319,-2.4178,-2.4474,-2.4519,-2.4525,-2.4648,-2.4651,-2.4654,-2.4694,-2.4692,-2.4691,-2.4689,-2.4861,-2.487,-2.4878,-2.4967,0,0,-2.4905,-2.4908,0,0,0,0,0,0,0,0,-2.4311,-2.4331,-2.451,-2.4516,-2.4523,-2.4648,-2.4608,-2.4759,-2.4695,-2.463,-2.469,-2.4688,-2.4794,-2.4808,-2.4845,-2.4975,-2.4983,-2.4905,-2.4911,-2.4914,-2.4917,0,0,0,0,0,0,0,-2.4301,-2.4323,-2.4543,-2.4513,-2.4521,-2.4529,-2.4549,-2.4637,-2.472,-2.4635,-2.4639,-2.4659,-2.4797,-2.4836,-2.4849,-2.4985,-2.4905,-2.4913,-2.4918,-2.4922,-2.5195,-2.5197,0,0,0,0,0,0,-2.4283,-2.4314,-2.4537,-2.4548,-2.4411,-2.4536,-2.4558,-2.4609,-2.4719,-2.4734,-2.466,-2.466,-2.4822,-2.4839,-2.4855,-2.4966,-2.4914,-2.4922,-2.4927,-2.5193,-2.5196,-2.5198,0,0,0,0,0,0,-2.4276,-2.4303,-2.453,-2.4432,-2.4462,-2.4543,-2.4601,-2.4614,-2.4653,-2.4738,-2.4752,-2.4685,-2.4822,-2.4843,-2.4939,-2.4972,-2.4926,-2.4934,-2.5191,-2.5194,-2.5197,-2.5187,0,0,0,0,0,0,-2.4267,-2.43,-2.4336,-2.4433,-2.4467,-2.4612,-2.4603,-2.4618,-2.4668,-2.467,-2.4765,-2.4779,-2.4822,-2.4926,-2.4947,-2.4983,-2.4941,-2.5188,-2.5192,-2.5196,-2.5185,-2.5189,-2.5193,0,0,0,0,0,-2.4257,-2.4326,-2.4337,-2.4364,-2.4514,-2.4614,-2.4634,-2.4682,-2.4671,-2.4706,-2.4761,-2.4776,-2.4965,-2.4935,-2.496,-2.4999,-2.5186,-2.5191,-2.5196,-2.5183,-2.5189,-2.5193,0,0,0,0,0,0,-2.4229,-2.4339,-2.4354,-2.4457,-2.4526,-2.4621,-2.4668,-2.4687,-2.476,-2.4759,-2.4815,-2.4836,-2.4927,-2.4973,-2.4937,-2.509,-2.5075,-2.5085,-2.5057,-2.5063,-2.5067,-2.5054,-2.4948,0,0,0,0,0,-2.4236,-2.4309,-2.4401,-2.4482,-2.4517,-2.4586,-2.4631,-2.4663,-2.4737,-2.4766,-2.4827,-2.4897,-2.4972,-2.502,-2.5094,-2.5191,-2.5212,-2.523,-2.5234,-2.5238,-2.5245,-2.5299,-2.5308,-2.5213,-2.5213,-2.5213,0,0,-2.4249,-2.4318,-2.4361,-2.4479,-2.4536,-2.4609,-2.461,-2.4688,-2.4743,-2.4777,-2.4871,-2.4918,-2.5,-2.5096,-2.5142,-2.5137,-2.5276,-2.5244,-2.5246,-2.5252,-2.5305,-2.5313,-2.5321,-2.5217,-2.5216,-2.5215,0,0,-2.431,-2.4371,-2.4445,-2.4502,-2.4589,-2.4635,-2.4652,-2.4745,-2.4777,-2.4873,-2.49,-2.4964,-2.5093,-2.5149,-2.5195,-2.5275,-2.5292,-2.5298,-2.5321,-2.5372,-2.5379,-2.5386,-2.5414,-2.5423,-2.5305,-2.5305,-2.5305,0,-2.4315,-2.4429,-2.448,-2.4557,-2.4607,-2.4642,-2.4717,-2.4769,-2.4875,-2.4909,-2.4902,-2.5063,-2.512,-2.5229,-2.5249,-2.5285,-2.5305,-2.5287,-2.5374,-2.5382,-2.5389,-2.5416,-2.5426,-2.5305,-2.5305,-2.5305,-2.5305,0,-2.443,-2.4508,-2.4557,-2.4659,-2.4715,-2.479,-2.4851,-2.4901,-2.4927,-2.4973,-2.5068,-2.5138,-2.5226,-2.5254,-2.528,-2.5367,-2.5361,-2.5363,-2.535,-2.5397,-2.5423,-2.5434,-2.5305,-2.5305,-2.5305,-2.5305,0,0,-2.448,-2.4609,-2.4626,-2.4673,-2.4771,-2.4831,-2.4906,-2.4993,-2.5034,-2.5106,-2.5169,-2.5276,-2.5279,-2.533,-2.5363,-2.5408,-2.5466,-2.5405,-2.5408,-2.5413,-2.5564,-2.5561,-2.5572,-2.5477,-2.548,-2.5481,-2.5557,0,-2.4553,-2.4691,-2.4739,-2.4852,-2.4923,-2.4957,-2.5022,-2.5088,-2.5132,-2.5198,-2.5246,-2.5321,-2.5319,-2.535,-2.5397,-2.5449,-2.5497,-2.5444,-2.5536,-2.5538,-2.5514,-2.5587,-2.5584,-2.5652,-2.5568,-2.5569,-2.5571,0,-2.4657,-2.473,-2.4851,-2.4939,-2.497,-2.5029,-2.5111,-2.5174,-2.5249,-2.5277,-2.5334,-2.5363,-2.5441,-2.5423,-2.5531,-2.5494,-2.5534,-2.5565,-2.5569,-2.5579,-2.5557,-2.5598,-2.5675,-2.5685,-2.5588,-2.5586,-2.5585,0,-2.468,-2.4809,-2.4898,-2.4936,-2.5041,-2.5081,-2.5126,-2.5199,-2.5248,-2.5319,-2.5351,-2.543,-2.5473,-2.5533,-2.5582,-2.5564,-2.5685,-2.5671,-2.571,-2.5708,-2.5733,-2.5731,-2.5818,-2.576,-2.576,-2.576,-2.5759,0,-2.4756,-2.4828,-2.4909,-2.4964,-2.5045,-2.5098,-2.5176,-2.5223,-2.5288,-2.535,-2.5384,-2.5441,-2.5503,-2.5568,-2.5606,-2.5689,-2.5708,-2.5733,-2.5742,-2.573,-2.5726,-2.5756,-2.5753,-2.5762,-2.5762,-2.5761,-2.5761,0,-2.4796,-2.4854,-2.4952,-2.5043,-2.5067,-2.5123,-2.52,-2.5253,-2.5298,-2.5376,-2.5398,-2.5468,-2.5547,-2.5601,-2.5702,-2.5728,-2.5817,-2.5826,-2.5792,-2.5796,-2.5831,-2.5827,-2.594,-2.5957,-2.5888,-2.5889,-2.5889,0,-2.4841,-2.4897,-2.4994,-2.5039,-2.5084,-2.5156,-2.5206,-2.5259,-2.5309,-2.5398,-2.544,-2.5521,-2.5588,-2.5712,-2.5771,-2.5847,-2.5858,-2.5892,-2.587,-2.5855,-2.5858,-2.5853,-2.5859,-2.5895,-2.5896,-2.5896,-2.5897,0,-2.4913,-2.4939,-2.501,-2.5091,-2.5149,-2.5215,-2.5281,-2.5315,-2.538,-2.5434,-2.5515,-2.5568,-2.567,-2.575,-2.5832,-2.5877,-2.5897,-2.5903,-2.5916,-2.5904,-2.5882,-2.5893,-2.58,-2.5901,-2.59,-2.59,-2.59,-2.59,-2.4957,-2.5008,-2.5084,-2.5161,-2.5216,-2.5277,-2.5331,-2.5383,-2.5452,-2.554,-2.5567,-2.5651,-2.5722,-2.5835,-2.5881,-2.5946,-2.5943,-2.5962,-2.5967,-2.597,-2.597,-2.5871,-2.5961,-2.5961,-2.5961,-2.5961,-2.5961,0,-2.503,-2.508,-2.5151,-2.5243,-2.5303,-2.5318,-2.5391,-2.544,-2.5514,-2.558,-2.5645,-2.5737,-2.5814,-2.5879,-2.5958,-2.5997,-2.6008,-2.6016,-2.6013,-2.6023,-2.5968,-2.5948,-2.6006,-2.6006,-2.6006,-2.6006,-2.6006,-2.6006,-2.5076,-2.5162,-2.5196,-2.531,-2.5359,-2.5442,-2.5483,-2.5538,-2.5591,-2.5692,-2.5757,-2.5799,-2.5863,-2.5947,-2.6017,-2.6034,-2.6061,-2.6067,-2.6085,-2.6032,-2.6027,-2.6022,-2.6004,-2.6072,-2.6072,-2.6135,-2.6136,-2.6136]}]]